[[{"header":{"parameterUnit":"m.s-1","parameterCategory":1,"la1":30.2991,"la2":30.254,"lo1":-89.0895,"lo2":-89.0444,"dy":0.0017,"dx":0.0017,"nx":28,"ny":28,"refTime":"2024-05-17T21:00:00:Z","depth":0,"parameterNumber":2,"parameterNumberName":"U-component_of_WINDS"},"data":[0,0,0,0,0,0,0,0,0,0,0,0,0,0,0,0,0,0,0,0,0,0,0,0,0,0,0,0,0,0,0,0,0,0,0,0,0,0,0,0,0,0,0,0,0,0,0,0,0,0,0,0,0,0,0,0,0,0,0.9062,0.9062,0,0.9075,0.9075,0.9075,0.9051,0.905,0.905,0.9049,0.9065,0.9066,0.9067,0,0,0,0,0,0,0,0,0,0,0,0,0,0.9018,0.9019,0.9062,0.9062,0.9062,0.9075,0.9075,0.9075,0.9051,0.905,0.9049,0.9048,0.9064,0.9066,0.9067,0,0,0,0,0,0,0,0,0,0,0,0,0,0.9035,0.902,0.9062,0.9052,0.9051,0.9074,0.9075,0.9075,0.9052,0.905,0.9049,0.9048,0.9064,0.9066,0.9067,0.9102,0,0,0.9073,0.9073,0,0,0,0,0,0,0,0,0.9034,0.9037,0.9053,0.9052,0.9051,0.906,0.9065,0.9084,0.9052,0.9051,0.9049,0.9047,0.9064,0.9066,0.9071,0.9103,0.9104,0.9073,0.9074,0.9075,0.9075,0,0,0,0,0,0,0,0.9033,0.9036,0.9067,0.9053,0.9052,0.9047,0.9048,0.9069,0.9064,0.9051,0.905,0.9051,0.9064,0.9069,0.9071,0.9104,0.9073,0.9074,0.9075,0.9076,0.9164,0.9166,0,0,0,0,0,0,0.9033,0.9035,0.9066,0.9067,0.904,0.9049,0.905,0.9059,0.9064,0.9064,0.9052,0.905,0.9067,0.9069,0.9072,0.9112,0.9075,0.9076,0.9077,0.9163,0.9165,0.9166,0,0,0,0,0,0,0.9032,0.9036,0.9066,0.9051,0.9054,0.9051,0.9061,0.9059,0.9065,0.9065,0.9064,0.9059,0.9066,0.9069,0.9094,0.9113,0.9077,0.9079,0.9161,0.9163,0.9165,0.9194,0,0,0,0,0,0,0.9031,0.9036,0.9048,0.9051,0.9055,0.9088,0.9062,0.9061,0.9068,0.9065,0.9071,0.9071,0.9065,0.9092,0.9096,0.9114,0.908,0.916,0.9162,0.9165,0.9192,0.9197,0.9201,0,0,0,0,0,0.9029,0.9057,0.9049,0.9053,0.9071,0.9089,0.9091,0.9084,0.9069,0.9082,0.9082,0.907,0.911,0.9095,0.9099,0.9118,0.9159,0.9162,0.9164,0.9189,0.9196,0.9201,0,0,0,0,0,0,0.9057,0.9057,0.9048,0.9077,0.9083,0.9085,0.9101,0.9091,0.9102,0.9099,0.909,0.9092,0.9119,0.9121,0.9104,0.9152,0.9132,0.9136,0.9149,0.9156,0.916,0.9159,0.9081,0,0,0,0,0,0.9066,0.908,0.908,0.9105,0.9109,0.9104,0.9112,0.9106,0.9112,0.9114,0.9116,0.9123,0.9137,0.9146,0.9159,0.9192,0.9193,0.9207,0.9212,0.9216,0.922,0.9237,0.9243,0.9176,0.9175,0.9175,0,0,0.9086,0.9088,0.9097,0.9111,0.9115,0.913,0.9107,0.9124,0.9135,0.9117,0.9141,0.9142,0.915,0.9178,0.9191,0.9181,0.9239,0.922,0.9223,0.9224,0.9241,0.9247,0.9253,0.9177,0.9177,0.9177,0,0,0.9129,0.9132,0.9153,0.9157,0.9163,0.916,0.9165,0.9168,0.9168,0.9191,0.9178,0.9192,0.9216,0.9222,0.9228,0.9273,0.9263,0.9278,0.9303,0.932,0.9325,0.933,0.9346,0.9352,0.9281,0.9281,0.9281,0,0.9153,0.9175,0.9166,0.9184,0.919,0.9174,0.9195,0.92,0.921,0.9215,0.9204,0.9233,0.9237,0.9267,0.9278,0.9283,0.9289,0.9277,0.9325,0.933,0.9334,0.9349,0.9355,0.9283,0.9283,0.9283,0.9282,0,0.9204,0.9219,0.9236,0.9245,0.9253,0.9273,0.9268,0.9277,0.927,0.9269,0.9293,0.9296,0.931,0.9316,0.931,0.9345,0.9339,0.9326,0.9306,0.9342,0.9356,0.9362,0.9285,0.9285,0.9284,0.9284,0,0,0.9266,0.9269,0.9275,0.9278,0.9283,0.9295,0.9315,0.9326,0.9335,0.9343,0.9358,0.9379,0.9367,0.9374,0.9369,0.9384,0.9419,0.9369,0.9369,0.9378,0.9457,0.9466,0.9473,0.9412,0.9413,0.9414,0.9457,0,0.9308,0.934,0.9332,0.9364,0.9378,0.9363,0.938,0.9385,0.9384,0.9396,0.9395,0.941,0.9394,0.9398,0.9411,0.9411,0.9435,0.9408,0.9427,0.9428,0.9425,0.9481,0.949,0.953,0.9462,0.9463,0.9464,0,0.9363,0.9371,0.9404,0.9406,0.9412,0.9427,0.9437,0.9449,0.9454,0.9453,0.946,0.9451,0.9471,0.945,0.9477,0.946,0.9467,0.9468,0.947,0.9471,0.9448,0.9483,0.9543,0.9549,0.9472,0.9472,0.9471,0,0.9403,0.9423,0.9445,0.9449,0.9452,0.9463,0.9465,0.947,0.9477,0.9486,0.9491,0.9503,0.9509,0.9519,0.9514,0.9499,0.9542,0.9521,0.9541,0.9541,0.9551,0.955,0.9612,0.9556,0.9556,0.9556,0.9555,0,0.9452,0.9473,0.9464,0.9477,0.95,0.9491,0.9515,0.9515,0.9519,0.9533,0.9521,0.9534,0.9527,0.954,0.9536,0.9559,0.9562,0.9562,0.956,0.9562,0.9562,0.9567,0.9564,0.9557,0.9557,0.9557,0.9556,0,0.9501,0.9496,0.9519,0.952,0.9521,0.9538,0.9539,0.9552,0.9549,0.9567,0.9571,0.9568,0.9583,0.9579,0.9595,0.9592,0.9621,0.9617,0.9619,0.9618,0.9638,0.9636,0.9705,0.9714,0.9652,0.9653,0.9653,0,0.9532,0.9548,0.955,0.9558,0.956,0.9574,0.9581,0.9573,0.9581,0.9589,0.9601,0.9614,0.9624,0.9649,0.9649,0.9661,0.9657,0.968,0.9658,0.966,0.9657,0.9655,0.9657,0.9684,0.9685,0.9685,0.9686,0,0.9588,0.9584,0.9595,0.9604,0.9613,0.9621,0.9627,0.9635,0.9627,0.9637,0.9652,0.9659,0.9676,0.9689,0.97,0.9703,0.9694,0.9693,0.9698,0.97,0.9701,0.97,0.963,0.9691,0.9691,0.969,0.969,0.969,0.9628,0.9641,0.9645,0.9657,0.9661,0.9667,0.9679,0.9678,0.9689,0.9701,0.9696,0.9713,0.9718,0.9732,0.9736,0.975,0.9741,0.9749,0.9751,0.9752,0.9755,0.9699,0.9752,0.9752,0.9752,0.9751,0.9751,0,0.9683,0.9684,0.9695,0.9704,0.9714,0.9703,0.971,0.9719,0.9733,0.9738,0.9748,0.9765,0.9778,0.9779,0.9791,0.9802,0.9798,0.9805,0.9804,0.9805,0.9762,0.9756,0.9808,0.9808,0.9808,0.9808,0.9808,0.9808,0.9712,0.9733,0.973,0.9753,0.9754,0.9769,0.9774,0.978,0.9784,0.9803,0.9813,0.9813,0.9817,0.983,0.9841,0.9841,0.9846,0.9856,0.9854,0.9814,0.9808,0.9803,0.9797,0.9857,0.9857,0.9895,0.9896,0.9896]},{"header":{"parameterUnit":"m.s-1","parameterCategory":1,"la1":30.2991,"la2":30.254,"lo1":-89.0895,"lo2":-89.0444,"dy":0.0017,"dx":0.0017,"nx":28,"ny":28,"refTime":"2024-05-17T21:00:00:Z","depth":0,"parameterNumber":3,"parameterNumberName":"V-component_of_WINDS"},"data":[0,0,0,0,0,0,0,0,0,0,0,0,0,0,0,0,0,0,0,0,0,0,0,0,0,0,0,0,0,0,0,0,0,0,0,0,0,0,0,0,0,0,0,0,0,0,0,0,0,0,0,0,0,0,0,0,0,0,2.3417,2.3418,0,2.3527,2.3528,2.3529,2.356,2.3559,2.3559,2.3558,2.3669,2.3672,2.3676,0,0,0,0,0,0,0,0,0,0,0,0,0,2.3232,2.3236,2.3417,2.3418,2.342,2.3527,2.3528,2.353,2.356,2.3559,2.3559,2.3558,2.3667,2.3672,2.3676,0,0,0,0,0,0,0,0,0,0,0,0,0,2.3324,2.3237,2.3417,2.3448,2.3452,2.3526,2.3528,2.353,2.356,2.3559,2.3558,2.3558,2.3666,2.3671,2.3676,2.3727,0,0,2.3693,2.3695,0,0,0,0,0,0,0,0,2.3319,2.3331,2.3442,2.3446,2.345,2.3529,2.3504,2.3596,2.356,2.3519,2.3558,2.3557,2.3623,2.3631,2.3654,2.3732,2.3737,2.3693,2.3696,2.3698,2.37,0,0,0,0,0,0,0,2.3313,2.3326,2.346,2.3443,2.3449,2.3456,2.3468,2.3521,2.3575,2.3523,2.3525,2.3538,2.3625,2.3649,2.3657,2.3739,2.3693,2.3698,2.3701,2.3703,2.3865,2.3867,0,0,0,0,0,0,2.3301,2.3321,2.3457,2.3464,2.3381,2.346,2.3473,2.3504,2.3574,2.3584,2.3538,2.3539,2.364,2.3651,2.3661,2.3726,2.3698,2.3703,2.3706,2.3864,2.3866,2.3867,0,0,0,0,0,0,2.3297,2.3313,2.3452,2.3393,2.3411,2.3464,2.3499,2.3507,2.3531,2.3586,2.3596,2.3553,2.364,2.3653,2.3711,2.373,2.3706,2.371,2.3863,2.3865,2.3866,2.3855,0,0,0,0,0,0,2.3292,2.3311,2.3331,2.3393,2.3414,2.3501,2.35,2.351,2.3541,2.3542,2.3603,2.3612,2.364,2.3703,2.3716,2.3737,2.3715,2.3861,2.3864,2.3866,2.3854,2.3857,2.3858,0,0,0,0,0,2.3285,2.3323,2.3332,2.3349,2.3441,2.3502,2.3514,2.3547,2.3542,2.3562,2.3598,2.361,2.3726,2.3709,2.3724,2.3746,2.386,2.3863,2.3866,2.3853,2.3856,2.3858,0,0,0,0,0,0,2.3261,2.3332,2.3343,2.3402,2.3446,2.3507,2.3534,2.3548,2.3594,2.3593,2.3631,2.3645,2.37,2.3729,2.3708,2.38,2.3793,2.3799,2.3779,2.3782,2.3784,2.3776,2.3719,0,0,0,0,0,2.3263,2.3307,2.3367,2.3413,2.3435,2.3481,2.3508,2.353,2.3577,2.3595,2.3635,2.3679,2.3725,2.3755,2.3801,2.3859,2.3873,2.3882,2.3884,2.3885,2.389,2.3923,2.3928,2.3876,2.3876,2.3876,0,0,2.3267,2.3311,2.3337,2.341,2.3446,2.3491,2.3496,2.3543,2.3577,2.3602,2.3659,2.369,2.3742,2.38,2.3827,2.3825,2.3907,2.3888,2.3889,2.3893,2.3927,2.3931,2.3936,2.3877,2.3877,2.3877,0,0,2.3297,2.3335,2.3379,2.3415,2.3471,2.3501,2.3512,2.3571,2.3593,2.3651,2.3671,2.3711,2.379,2.3827,2.3856,2.3901,2.3914,2.3915,2.3926,2.3958,2.3962,2.3966,2.3983,2.3989,2.3919,2.3919,2.3919,0,2.3295,2.3364,2.3399,2.3446,2.3477,2.3504,2.3548,2.3582,2.3649,2.367,2.3667,2.3768,2.3805,2.3872,2.3883,2.3906,2.3919,2.3908,2.3959,2.3963,2.3967,2.3984,2.399,2.3919,2.3919,2.3919,2.3919,0,2.3359,2.3406,2.3435,2.35,2.3535,2.358,2.3622,2.3653,2.3672,2.3702,2.3762,2.3807,2.3863,2.388,2.3898,2.3951,2.3948,2.3952,2.3946,2.3972,2.3988,2.3994,2.3919,2.3919,2.3919,2.3919,0,0,2.3376,2.3462,2.3472,2.3502,2.3566,2.3603,2.365,2.3705,2.3731,2.3777,2.3817,2.3884,2.3888,2.3921,2.3944,2.3972,2.4006,2.3973,2.3974,2.3978,2.4067,2.4064,2.4071,2.4015,2.4016,2.4017,2.4063,0,2.3415,2.35,2.3533,2.3602,2.3647,2.3673,2.3714,2.3757,2.3787,2.3829,2.3862,2.3909,2.3911,2.3931,2.396,2.3996,2.4025,2.3993,2.4053,2.4054,2.4039,2.4079,2.4076,2.4117,2.407,2.4071,2.4071,0,2.3471,2.3519,2.3593,2.3652,2.3672,2.3708,2.3762,2.3802,2.3852,2.3872,2.3909,2.393,2.398,2.3971,2.404,2.4018,2.4045,2.4066,2.4068,2.4075,2.4065,2.4088,2.4131,2.4137,2.4082,2.4081,2.408,0,2.3477,2.356,2.3615,2.364,2.3711,2.3735,2.3766,2.3815,2.3846,2.3894,2.3915,2.3966,2.3995,2.4035,2.4069,2.406,2.4136,2.413,2.4154,2.4153,2.4169,2.4167,2.4217,2.4185,2.4185,2.4185,2.4184,0,2.3517,2.3561,2.3619,2.3653,2.3703,2.3741,2.379,2.3822,2.3866,2.3906,2.3931,2.3969,2.4012,2.4055,2.4083,2.4136,2.4149,2.4166,2.4173,2.4164,2.4162,2.4182,2.418,2.4186,2.4186,2.4186,2.4185,0,2.3532,2.3573,2.3635,2.3697,2.3714,2.3748,2.3801,2.3835,2.3867,2.3918,2.3932,2.3981,2.4033,2.4072,2.4139,2.4157,2.4215,2.4221,2.4198,2.4202,2.4224,2.4221,2.4289,2.43,2.4259,2.426,2.426,0,2.3555,2.359,2.3657,2.3686,2.3717,2.3763,2.3796,2.3835,2.3868,2.3929,2.3955,2.4009,2.4055,2.4136,2.4178,2.423,2.4238,2.4258,2.4246,2.4237,2.4239,2.4237,2.4241,2.426,2.426,2.426,2.426,0,2.3591,2.361,2.3657,2.3711,2.375,2.3794,2.3839,2.3861,2.3908,2.3944,2.3998,2.4034,2.4103,2.4156,2.4212,2.4243,2.426,2.4264,2.4273,2.4264,2.4249,2.4258,2.4203,2.4262,2.4262,2.4262,2.4262,2.4262,2.3612,2.3644,2.3697,2.3748,2.3786,2.3828,2.3863,2.39,2.3946,2.4006,2.4026,2.4082,2.4132,2.4209,2.4241,2.4285,2.4285,2.4297,2.43,2.4303,2.4303,2.4242,2.4296,2.4296,2.4296,2.4296,2.4296,0,2.365,2.3685,2.3732,2.3795,2.3835,2.3849,2.3899,2.3932,2.3981,2.4027,2.4072,2.4134,2.4187,2.4233,2.4287,2.4314,2.4323,2.4327,2.4326,2.4333,2.4299,2.4287,2.4319,2.4319,2.4319,2.4319,2.4319,2.4319,2.3674,2.3731,2.3756,2.3831,2.3866,2.3922,2.395,2.3989,2.4025,2.4095,2.4139,2.4169,2.4215,2.4273,2.4322,2.4334,2.4353,2.4356,2.437,2.4338,2.4335,2.4332,2.4321,2.4359,2.4359,2.44,2.44,2.44]}]]